Theta_e
309 310 311 310 309 310 309 310 308 311 312 317 326 331 337 341 343 342 341 341 343 343 342 343 340 341 342 339 338 337 335 333 332 333 332 331 330 329 329 328 327 327 326 324
307 309 309 307 309 310 310 311 312 312 313 321 330 336 338 340 341 340 341 341 343 343 342 341 341 341 339 337 335 334 332 331 332 331 330 329 328 327 326 324 324 325 324 321
304 309 308 304 308 309 311 313 313 310 315 322 323 334 338 341 341 340 342 342 343 342 342 341 340 339 336 335 334 332 331 331 330 329 328 327 325 324 323 323 323 323 322 322
305 308 299 309 315 313 311 312 315 315 318 324 325 334 341 344 342 341 342 344 344 343 343 342 339 336 336 333 332 330 329 328 328 327 326 325 324 323 323 322 322 322 321 321
306 305 309 310 313 313 311 311 316 317 319 328 331 337 339 344 344 343 345 346 345 345 343 340 336 335 333 330 329 328 326 326 326 326 325 324 322 323 323 323 323 322 323 321
310 305 302 312 316 319 318 308 318 319 322 327 333 328 333 343 343 344 346 346 344 343 339 337 335 334 332 329 327 326 326 324 325 326 325 323 324 324 325 325 323 323 323 324
308 307 312 318 319 320 308 311 320 322 324 329 331 332 341 342 343 346 344 344 343 340 336 335 335 333 330 328 326 327 327 326 325 325 325 325 325 325 325 325 326 325 323 324
309 307 304 321 319 315 320 323 323 325 326 330 335 337 340 341 343 344 343 342 340 337 335 334 334 332 328 326 327 328 327 326 325 326 324 323 325 326 325 326 326 324 323 320
312 311 323 324 324 326 330 331 333 331 327 336 336 339 340 341 343 342 342 339 339 336 334 333 333 330 326 327 327 327 326 325 325 326 324 324 324 324 323 325 320 321 317 316
314 319 317 322 326 329 332 330 334 336 332 337 338 339 339 341 342 341 340 339 338 334 332 330 330 329 328 327 326 325 324 324 324 323 323 323 322 321 321 320 317 316 316 316
318 320 321 322 331 334 334 333 333 337 337 338 340 340 342 342 342 341 339 337 336 333 331 328 328 327 326 326 326 324 323 322 321 319 320 321 322 321 319 322 314 314 314 315
314 330 331 332 335 335 333 333 334 336 338 341 341 341 343 341 341 338 337 336 334 333 330 327 326 326 325 326 326 324 321 319 318 318 319 320 320 321 309 308 307 305 303 308
322 332 332 333 334 336 335 335 337 338 341 341 342 341 341 338 337 332 336 335 334 332 329 327 326 325 326 327 326 323 321 320 317 315 318 320 320 319 317 312 305 303 301 301
330 330 328 331 331 336 335 337 337 341 342 341 340 341 339 337 335 337 334 334 334 331 328 325 324 324 326 326 325 324 322 312 320 320 320 320 320 321 318 317 317 319 305 303
327 328 329 333 335 335 337 339 338 337 338 338 340 338 337 331 332 335 336 333 331 327 324 323 321 322 325 324 322 322 320 317 319 321 321 319 319 319 318 318 319 320 319 308
327 327 328 331 332 334 335 336 337 336 337 337 336 335 334 335 334 333 332 329 324 320 321 320 321 322 323 323 321 319 320 321 318 318 320 320 319 319 318 319 319 319 319 319
324 324 326 329 332 333 332 336 337 336 336 335 335 335 335 333 330 327 326 325 324 322 321 321 322 324 323 322 320 319 320 320 323 318 318 319 319 318 319 318 317 318 318 315
328 331 333 334 333 333 333 335 335 336 335 334 334 329 325 327 325 325 323 321 318 321 322 324 324 323 323 322 321 320 319 320 321 320 320 320 320 319 319 318 319 317 316 315
327 329 333 333 335 335 333 334 332 335 334 333 330 328 328 327 325 321 320 319 319 319 320 324 323 322 322 324 323 323 321 320 320 320 320 320 320 321 319 318 318 316 315 313
329 333 335 334 334 333 332 333 332 329 329 329 328 328 325 324 323 322 321 319 320 320 324 322 321 324 325 326 325 322 321 320 319 320 320 319 320 321 318 312 315 314 313 312
330 334 334 331 330 331 330 330 329 329 330 330 328 326 323 321 321 321 319 315 321 322 323 321 323 322 323 324 322 321 320 320 321 320 320 321 320 319 317 315 314 313 311 311
331 331 331 330 328 327 328 328 330 330 328 329 327 324 320 319 322 320 322 320 322 315 322 321 323 323 323 323 321 320 321 321 323 322 322 321 319 317 314 313 312 311 311 311
332 333 331 328 327 326 327 327 327 327 326 325 323 322 319 318 318 317 316 324 322 318 321 321 319 321 321 321 321 323 323 322 322 321 320 320 319 315 313 312 311 311 310 309
334 331 328 328 329 328 327 329 328 327 327 325 324 322 320 317 318 320 324 316 315 315 320 321 320 319 315 321 323 324 325 323 323 320 321 306 316 317 313 312 311 311 309 308
333 334 331 328 325 327 328 327 326 326 325 324 323 323 322 320 318 320 322 322 312 317 321 314 318 317 321 322 324 326 324 323 320 318 316 316 314 313 311 311 311 311 309 309
332 330 330 329 326 325 325 325 321 322 322 320 320 320 319 320 322 322 322 318 320 317 321 322 321 322 323 324 328 324 322 321 319 318 314 316 315 312 311 311 310 310 309 308
332 322 330 328 328 327 326 324 323 321 321 320 318 319 321 322 321 320 317 321 320 320 322 323 320 321 323 324 324 323 322 322 309 316 316 316 313 312 311 310 310 310 309 309
Wind_Speed
18 20 14 20 20 22 24 22 20 16 16 12 16 17 18 19 18 18 19 18 17 16 16 16 14 12 11 11 9 9 8 8 7 6 7 7 7 8 9 9 8 7 8 9
20 14 19 13 16 18 23 23 21 21 20 17 15 16 16 19 20 20 19 18 18 18 18 17 16 13 12 10 9 8 8 8 8 8 8 8 7 7 8 8 7 7 8 9
14 17 17 21 22 18 20 21 17 19 18 13 10 18 18 20 19 20 20 20 20 19 18 17 16 14 12 11 10 9 9 9 8 8 8 8 8 7 7 7 7 7 6 6
13 14 20 17 16 17 20 20 18 18 18 3 4 12 15 18 20 20 20 21 20 18 17 16 16 15 12 11 9 9 9 8 8 8 8 8 7 6 5 4 4 4 4 5
12 13 15 15 17 14 17 18 17 19 17 11 6 12 14 18 20 19 20 19 18 17 17 17 16 14 12 11 10 10 9 8 7 7 7 8 6 5 4 3 2 3 2 2
12 13 15 16 18 13 15 16 18 18 16 12 14 12 11 19 19 20 21 19 18 18 17 16 15 14 12 11 10 9 9 8 7 7 7 7 5 5 3 4 3 4 3 1
13 12 13 14 8 17 16 11 18 22 14 16 16 13 21 21 20 20 19 21 19 18 16 16 15 13 12 11 10 9 9 9 8 8 7 6 5 3 2 1 2 2 3 4
14 17 18 6 9 7 3 11 10 4 9 13 13 9 25 23 23 22 21 21 20 17 16 15 14 12 12 11 11 10 10 9 8 8 9 7 5 4 3 3 6 4 4 6
5 5 16 8 9 10 12 12 13 13 5 13 14 17 23 23 23 22 21 19 18 17 17 14 13 11 12 12 11 11 10 9 9 7 4 4 4 4 7 7 4 2 3 4
4 11 3 23 14 14 18 12 9 12 8 14 16 21 22 22 21 20 19 18 17 18 17 14 12 11 12 12 11 11 10 9 8 8 6 5 8 6 2 1 4 6 5 5
12 12 14 19 10 12 14 15 9 8 6 14 18 21 22 20 21 18 19 17 16 16 15 14 13 12 13 12 12 11 9 9 9 8 8 6 2 2 2 5 5 6 7 7
11 12 9 11 11 13 14 14 11 7 13 15 21 22 23 20 18 14 15 17 15 15 15 14 13 12 12 12 11 10 8 8 6 7 8 4 3 6 7 2 9 10 10 8
12 13 12 13 15 10 11 12 11 11 15 18 19 20 20 19 17 20 16 17 16 16 15 14 13 13 12 11 10 9 9 7 6 3 4 2 2 2 4 10 12 12 12 12
7 11 14 13 12 11 12 11 7 10 16 19 21 21 19 21 22 17 17 16 15 15 14 13 13 12 12 11 10 9 6 4 3 4 4 3 3 2 5 5 3 3 12 13
15 16 14 10 10 11 8 9 11 14 15 18 18 16 16 15 22 18 16 16 15 14 13 13 13 12 12 12 11 10 8 8 6 3 2 3 4 6 6 5 3 4 8 6
16 15 10 9 9 6 6 8 11 15 17 19 19 19 19 18 18 17 16 15 14 12 12 12 12 13 12 12 12 10 7 6 3 5 4 6 5 4 5 5 7 5 4 5
14 14 11 7 7 6 8 8 11 14 16 17 19 19 18 19 18 18 16 14 12 11 12 12 12 12 11 12 11 8 7 10 6 5 6 5 4 5 6 7 7 6 7 5
15 7 9 7 6 7 9 10 13 14 15 18 17 14 16 16 15 17 16 13 12 13 11 11 12 12 11 10 8 4 5 5 9 6 4 4 5 6 8 8 6 9 9 4
16 8 5 3 6 9 12 14 14 13 16 18 17 18 18 18 16 16 14 14 14 13 12 12 10 11 10 8 4 5 6 5 4 5 5 3 5 4 8 8 7 8 9 8
15 9 7 10 10 14 16 17 16 15 14 15 14 16 18 17 15 12 12 13 11 9 13 13 12 8 9 10 6 7 7 6 6 5 3 6 7 6 8 2 5 6 7 7
17 15 14 14 14 16 14 16 18 20 17 16 15 16 15 16 15 13 12 10 11 15 12 15 10 9 8 9 9 9 7 6 3 6 6 5 4 7 7 7 7 7 7 6
19 15 17 16 15 15 15 15 17 19 17 15 16 15 15 11 12 11 10 10 10 10 10 9 9 5 3 3 8 5 5 5 5 4 3 3 4 6 6 6 6 7 6 6
18 18 19 19 15 12 11 11 11 16 18 16 15 14 14 11 10 10 9 10 11 10 9 10 8 11 7 4 6 6 5 8 7 6 4 2 3 6 6 6 6 7 5 4
17 19 16 16 18 15 13 14 15 15 14 14 14 13 12 10 9 7 9 8 15 12 10 10 10 9 5 5 8 7 3 8 5 5 1 2 3 2 4 5 5 5 6 3
17 19 20 17 15 11 15 14 15 15 14 13 12 11 11 8 8 7 9 10 13 10 8 11 10 8 5 8 8 2 4 2 6 8 5 3 4 4 5 5 5 4 5 5
17 15 14 17 15 8 10 12 10 10 11 10 9 8 8 7 7 7 9 11 11 10 10 11 10 9 9 8 3 4 4 4 3 1 4 3 2 4 5 5 5 4 4 4
16 16 14 13 11 12 11 10 10 11 11 10 9 8 9 8 9 8 7 9 11 10 9 5 5 5 5 5 5 4 2 2 6 6 3 2 3 4 4 4 4 3 3 3
Wind_Direction
257 269 254 240 213 226 243 251 260 265 257 248 184 174 166 156 153 163 156 162 155 144 155 141 141 148 144 137 123 118 126 124 102 92 88 82 78 72 67 56 54 43 44 35
250 252 255 250 254 244 222 241 249 263 273 283 95 122 163 163 162 172 164 158 156 147 146 145 147 151 138 136 132 126 119 111 113 112 112 103 89 81 78 78 69 54 52 50
243 245 244 242 239 239 250 246 229 246 251 265 238 157 174 165 168 173 163 164 151 157 154 149 151 143 145 137 132 131 125 127 122 122 114 102 98 94 86 76 68 57 49 51
250 241 243 251 243 222 249 244 241 246 256 280 238 143 166 164 173 172 161 159 156 158 152 153 145 143 137 132 128 128 132 129 130 131 121 114 111 102 102 98 85 68 54 26
254 238 255 241 247 244 225 233 242 242 239 133 160 133 156 171 173 167 159 157 159 153 150 146 136 139 135 139 139 138 137 135 138 140 131 134 135 132 136 149 164 152 110 71
261 277 251 243 245 205 231 251 245 234 238 150 149 187 169 171 165 158 155 157 153 146 143 135 139 142 143 142 142 141 135 134 137 142 144 149 145 166 177 229 151 305 342 177
227 250 260 278 301 229 202 247 219 230 211 160 185 219 144 162 156 153 153 153 145 146 143 145 146 146 147 145 146 139 136 138 141 146 150 154 171 185 189 254 320 319 326 281
236 246 250 138 329 261 244 250 271 30 241 164 184 226 148 154 150 152 154 144 148 149 147 149 149 150 148 144 136 143 145 145 152 166 201 161 179 182 199 237 229 227 226 273
306 212 342 331 285 307 32 352 348 348 288 134 166 143 150 151 149 151 152 153 155 148 147 145 150 150 146 137 148 151 154 156 169 178 179 156 190 195 226 207 278 337 340 330
273 260 209 299 328 350 349 311 324 314 287 154 160 156 155 149 149 152 150 161 150 148 149 146 143 147 139 150 153 158 160 171 168 186 189 189 205 189 261 350 346 339 333 324
255 257 268 267 12 6 335 307 299 280 187 176 150 152 152 150 149 152 157 153 148 156 148 146 149 150 150 155 164 167 171 183 185 163 206 166 281 59 13 60 11 327 318 338
268 58 2 354 348 329 321 310 266 209 163 157 156 152 153 145 143 144 155 146 156 151 146 149 153 154 152 159 173 170 176 186 192 156 188 187 198 177 212 185 186 204 232 230
283 346 324 313 299 309 312 286 258 181 159 145 144 156 153 152 152 144 153 153 156 151 149 151 154 154 161 166 174 176 206 146 154 269 178 230 250 270 291 203 226 227 223 230
308 302 294 297 315 322 300 279 134 174 154 154 153 155 158 146 130 143 153 157 151 146 148 152 156 156 163 167 170 187 150 51 209 197 195 252 272 282 276 270 336 357 226 225
282 277 278 313 313 287 275 250 184 164 157 151 150 136 151 140 133 144 146 148 142 141 153 153 156 159 171 167 175 177 182 183 209 207 244 28 285 261 264 288 305 240 276 193
268 274 286 285 286 277 259 211 194 155 154 158 146 150 146 141 130 136 138 139 143 153 156 159 158 165 173 171 179 182 183 74 11 320 296 248 265 270 297 317 293 307 270 315
267 273 275 251 261 223 222 193 167 157 159 152 148 139 134 135 137 134 133 140 137 144 155 161 163 165 176 176 196 185 197 161 208 251 249 262 322 302 294 303 325 286 326 106
271 276 305 277 234 194 181 160 135 144 144 126 140 136 131 134 145 144 142 126 136 149 158 158 160 173 183 180 202 204 228 206 195 210 232 252 279 308 297 290 289 337 339 10
253 232 237 206 169 137 109 111 115 140 131 157 148 147 137 144 147 138 132 143 147 153 157 163 149 186 175 158 205 223 244 227 230 248 267 254 258 276 305 319 345 337 316 331
222 171 219 154 148 132 145 137 137 133 145 142 145 144 144 148 136 131 142 151 158 154 153 146 176 192 164 158 194 261 246 236 259 271 316 325 331 295 312 350 339 320 328 324
204 163 143 139 147 152 152 142 151 144 141 145 150 142 138 137 143 145 147 156 146 137 160 148 190 184 192 166 187 231 248 270 257 300 305 281 277 328 340 342 328 333 325 326
185 144 149 154 156 155 161 156 152 135 135 147 143 135 131 133 144 149 179 139 136 167 164 176 206 177 105 174 227 284 297 321 2 323 295 309 349 320 337 338 335 321 327 333
149 144 147 152 140 129 135 132 128 135 134 138 136 144 152 150 155 151 156 146 146 197 202 191 144 121 131 236 272 282 338 329 307 312 15 310 350 353 336 331 345 317 325 332
133 131 131 142 129 135 144 147 140 126 130 137 142 150 143 155 154 167 129 100 139 180 236 133 136 142 191 249 262 265 286 270 286 296 30 62 257 250 286 315 320 314 314 289
137 131 131 120 122 139 145 139 129 132 137 125 139 150 157 157 162 162 147 151 135 197 201 135 148 153 227 253 267 287 253 307 4 339 324 334 312 329 339 326 304 341 319 308
132 137 140 139 137 145 144 146 136 143 132 142 151 155 158 147 133 145 164 160 168 219 222 163 193 197 228 247 205 240 261 116 274 172 324 287 338 297 320 330 317 307 319 323
143 144 142 137 139 149 150 149 149 138 143 147 148 155 152 147 155 167 171 169 164 194 233 161 156 213 228 213 233 250 277 261 51 332 195 290 301 330 340 325 318 322 314 349